Temperature
12 11 11 12 12 12 12 12 12 11 11 11 11 11 11 11 11 11 11 11 11 11 10 10 10 10 9 9 9 9 9 9 9 9 9 9 9 9 9 9 9 9 9
11 11 11 11 11 11 11 11 11 11 11 11 11 11 11 11 11 11 11 10 10 10 10 10 10 9 9 9 9 9 9 9 9 9 9 9 9 9 9 9 9 9 9
11 11 11 11 11 11 11 11 11 11 11 11 11 11 11 11 10 10 10 10 10 10 10 10 10 9 9 9 9 9 9 9 8 8 8 8 8 8 8 8 8 8 8
10 10 10 11 11 11 11 11 11 11 11 11 10 10 10 10 10 10 10 10 10 10 9 9 9 9 9 9 9 8 8 8 8 8 8 8 8 8 8 8 8 8 8
10 10 10 10 10 10 10 10 10 10 10 10 10 10 10 10 10 10 10 10 9 9 9 9 9 9 9 9 9 8 8 8 8 8 8 8 8 8 8 8 8 8 8
10 10 10 10 10 10 10 10 10 10 10 10 10 10 10 10 10 10 9 9 9 9 9 9 9 9 9 8 8 8 8 8 8 8 8 8 7 7 7 7 7 7 7
9 9 9 9 9 10 10 10 10 9 9 9 9 9 9 9 9 9 9 9 9 8 8 8 8 8 8 8 8 8 8 8 7 7 7 7 7 7 7 7 7 7 7
9 9 9 9 9 9 9 9 9 9 9 9 9 9 9 8 8 8 8 8 8 8 8 8 8 8 8 8 8 7 7 7 7 7 7 7 7 7 7 7 7 7 7
9 9 9 9 9 9 9 9 9 9 9 9 8 8 8 8 8 8 8 8 8 8 8 7 7 7 7 7 7 7 7 7 7 7 7 6 6 6 6 6 6 6 6
8 8 8 8 8 8 8 8 8 8 8 8 8 8 8 8 7 7 7 7 7 7 7 7 7 7 7 6 6 6 6 6 6 6 6 6 6 6 6 6 6 6 6
8 8 8 8 8 8 8 8 8 8 8 8 8 7 7 7 7 7 6 7 7 7 7 7 6 6 6 6 6 6 6 6 6 6 6 6 5 5 5 5 5 5 5
7 7 7 7 7 7 7 7 7 7 7 7 7 7 7 6 6 6 6 6 6 6 6 6 6 6 6 5 5 5 5 5 5 5 5 5 5 5 5 5 5 5 5
7 7 7 7 7 7 7 7 7 7 7 7 7 7 6 6 6 6 5 5 5 5 6 6 6 5 5 5 5 5 5 5 5 5 5 5 5 5 5 5 5 5 5
6 6 6 6 6 6 6 6 6 6 6 6 6 6 6 6 6 5 5 5 4 5 5 5 5 5 5 5 5 4 4 4 4 4 4 4 4 4 4 4 4 4 4
6 6 6 6 6 6 6 6 6 6 6 6 6 6 6 5 5 5 5 4 4 4 4 4 4 5 4 4 4 4 4 4 4 4 4 4 4 4 4 4 4 4 4
6 6 6 5 5 5 5 5 5 6 5 5 5 5 5 5 5 5 4 4 4 3 3 3 4 4 4 4 4 4 4 4 4 4 4 4 4 3 3 3 3 3 3
5 5 5 5 5 5 5 5 5 5 5 5 5 5 5 5 4 4 4 4 3 3 3 3 3 3 3 3 3 3 3 3 3 3 3 3 3 3 3 3 3 3 3
5 5 5 5 5 5 4 4 4 4 4 4 4 4 4 4 4 4 3 3 3 3 3 3 3 3 3 3 3 3 3 3 3 3 3 3 3 3 3 2 2 2 2
4 4 4 4 4 4 4 4 4 4 4 4 4 4 4 4 3 3 3 3 3 3 2 2 2 2 2 2 2 2 2 2 2 2 2 2 2 2 2 2 2 2 2
4 4 4 4 4 3 3 3 3 3 3 3 3 3 3 3 3 3 3 2 2 2 2 2 2 2 2 2 2 2 2 2 2 2 2 2 2 2 1 1 1 1 1
3 3 3 3 3 3 3 3 3 3 3 3 3 3 3 3 2 2 2 2 2 2 2 2 2 2 1 1 1 1 1 1 1 1 1 1 1 1 1 1 1 1 1
2 2 2 2 2 2 2 2 2 2 2 2 2 2 2 2 2 2 2 2 2 2 1 1 1 1 1 1 1 0 0 0 0 1 1 1 1 1 1 1 1 0 0
2 2 2 2 2 2 2 2 2 1 1 1 2 2 2 2 1 1 1 1 1 1 1 1 1 1 1 0 0 0 0 0 -0 0 -0 0 0 0 0 0 -0 -0 -0
2 2 2 1 1 1 1 1 1 1 1 1 1 1 1 1 1 1 1 1 1 1 1 1 1 1 0 0 0 -0 -0 -0 -0 -0 -1 -1 -0 -0 -0 -0 -0 -1 -1
1 1 1 1 1 1 1 1 1 1 1 1 1 1 1 1 1 1 0 1 1 0 0 0 0 0 -0 -0 -0 -0 -1 -1 -1 -1 -1 -1 -1 -1 -0 -0 -1 -1 -1
1 1 1 1 0 1 0 0 0 0 0 0 0 0 0 0 0 0 0 0 0 0 0 0 -0 -0 -0 -1 -1 -1 -1 -1 -2 -2 -2 -2 -2 -2 -2 -1 -1 -1 -1
Wind_Speed
3 3 3 4 4 3 3 3 3 3 3 3 3 3 2 2 2 2 3 3 3 2 2 2 2 2 2 2 3 4 4 4 4 5 5 5 5 5 5 6 6 7 8
5 4 3 3 3 3 3 3 3 2 2 2 2 2 2 2 2 2 2 3 3 2 2 2 2 2 2 2 3 3 3 4 4 4 5 5 6 6 6 6 6 7 7
6 5 3 2 3 3 4 3 3 3 2 2 1 1 1 2 2 2 2 2 3 3 3 2 3 3 3 3 3 3 4 4 5 5 5 6 6 6 7 7 7 7 7
7 5 4 3 4 4 4 2 2 1 1 1 1 0 1 1 2 1 2 2 3 3 4 4 3 4 4 4 4 4 4 5 5 6 6 6 7 7 7 7 7 8 8
7 6 4 3 4 3 2 2 1 1 1 1 1 0 1 1 1 2 3 3 3 3 3 4 5 5 4 4 4 4 5 5 6 6 7 7 7 8 8 8 8 9 8
7 6 4 4 4 3 2 2 2 1 1 2 1 1 1 1 2 2 2 3 3 4 4 4 5 5 6 5 5 5 5 6 6 7 7 8 8 9 9 9 9 9 9
6 6 4 4 3 3 3 3 3 2 1 1 2 1 2 2 2 2 2 2 3 4 4 4 4 5 5 6 7 7 7 7 7 7 7 8 8 9 9 10 10 10 9
6 5 5 4 4 3 3 3 3 2 1 1 2 2 1 2 2 1 1 1 2 2 3 3 3 4 4 5 7 8 8 8 8 8 8 8 9 9 9 9 9 9 9
6 6 6 5 4 4 4 4 4 4 2 1 1 3 2 2 1 1 1 0 1 1 1 2 3 4 5 5 6 7 8 9 8 8 8 8 9 9 10 10 10 9 9
5 5 5 5 4 4 4 4 3 3 4 2 1 0 1 2 2 1 2 1 1 1 1 1 2 3 4 5 5 6 8 8 8 9 9 9 9 9 9 9 9 10 9
3 4 5 4 4 4 4 4 3 3 3 3 3 2 1 1 1 2 2 2 2 2 1 1 1 2 3 4 5 6 7 8 8 9 9 9 9 9 9 10 10 10 10
1 2 3 3 4 3 4 4 4 4 3 3 3 3 3 3 2 2 2 2 2 2 2 2 1 1 3 4 5 6 7 8 9 9 9 8 9 9 9 10 10 10 10
2 3 2 2 2 3 3 3 4 3 3 4 4 3 3 3 2 2 2 1 1 2 2 2 1 1 2 3 4 6 6 8 8 9 9 9 9 8 9 9 10 10 10
3 3 3 3 3 3 3 3 3 3 3 3 4 3 3 3 2 3 3 2 1 1 2 3 1 2 2 3 5 6 6 8 9 9 9 9 9 8 8 9 10 10 10
3 3 3 3 2 3 3 3 3 3 3 3 3 3 3 2 2 2 2 3 3 2 3 3 2 2 3 4 5 5 6 8 9 9 9 9 8 8 8 9 9 9 10
3 3 3 3 3 3 3 3 2 3 3 3 3 3 3 2 2 2 2 2 2 3 3 2 2 2 3 5 6 6 6 8 8 8 8 8 8 8 8 8 8 9 10
3 4 4 3 3 3 3 3 3 3 3 3 3 4 4 3 3 3 2 2 2 2 4 3 2 2 2 3 5 6 6 6 6 8 8 8 8 8 8 8 8 9 9
3 4 4 4 4 4 4 4 4 4 4 4 4 4 5 4 4 3 3 3 2 2 3 3 2 2 2 2 3 4 5 6 6 7 8 8 8 8 8 8 8 8 8
2 3 3 4 4 4 4 4 4 4 5 5 5 5 5 5 4 3 4 3 3 2 2 3 3 2 2 2 2 3 3 3 5 7 7 7 8 8 8 8 8 8 8
2 2 3 3 4 4 4 4 5 5 5 5 5 5 5 6 6 5 4 4 3 2 2 2 2 2 2 2 1 2 4 3 4 4 6 6 7 8 8 8 8 7 7
2 2 2 2 3 3 4 4 5 4 4 4 4 4 4 5 5 5 4 4 4 3 2 2 2 2 2 2 2 2 3 4 3 2 3 4 5 4 6 7 7 7 7
1 1 2 2 3 3 4 5 4 4 4 4 4 3 3 4 4 5 5 5 4 4 4 3 3 3 4 3 2 2 2 3 3 2 2 4 3 3 4 5 7 7 7
2 2 2 2 3 4 5 5 5 4 4 4 4 3 3 3 3 3 4 5 5 6 5 4 4 5 4 3 3 3 3 3 4 3 2 4 2 3 4 6 7 7 7
3 3 3 3 3 3 4 5 5 4 3 4 4 4 4 4 4 4 3 4 4 4 5 4 5 5 4 4 4 4 4 3 3 2 1 3 3 3 5 6 7 7 6
3 3 3 3 3 4 5 5 4 3 3 3 3 4 4 4 5 4 3 4 3 3 4 5 5 5 4 3 2 0 0 1 3 2 1 1 2 3 3 3 5 6 6
3 3 3 3 4 4 4 5 4 3 3 3 3 4 5 5 5 5 4 4 4 4 2 2 2 2 2 3 3 2 3 2 2 2 2 1 1 2 2 2 3 4 5
Wind_Direction
138 130 121 114 110 112 109 106 103 98 93 88 89 96 88 83 77 61 28 32 42 30 7 10 13 21 37 40 28 21 17 15 14 10 4 358 353 351 345 343 342 338 333
149 143 136 125 120 125 126 125 126 117 106 96 83 79 76 74 83 72 43 29 34 34 22 7 358 356 5 23 18 17 9 4 4 5 0 352 346 342 340 339 335 333 332
156 152 150 147 140 136 125 113 104 100 111 104 96 75 71 69 71 69 54 39 28 21 21 12 0 348 350 353 358 1 1 358 354 351 348 344 342 339 334 327 329 325 321
162 153 155 162 154 143 130 126 119 110 114 123 116 88 55 60 57 55 59 46 38 21 18 18 6 1 355 356 355 354 353 352 347 343 338 334 333 333 332 324 320 316 314
168 158 161 160 154 139 137 143 127 136 142 124 122 96 64 58 49 54 54 50 49 45 34 23 22 15 3 356 348 342 342 340 336 334 333 332 325 321 321 320 314 309 308
169 161 155 154 149 143 148 138 133 107 127 133 97 59 53 49 61 66 55 51 52 51 52 45 37 26 15 2 350 343 335 331 328 326 326 326 322 319 315 312 311 311 309
169 165 163 158 156 162 166 156 139 127 114 121 97 47 31 47 56 67 59 58 46 41 47 43 39 33 16 2 353 344 335 326 324 324 326 326 322 319 315 312 309 306 305
167 172 170 169 168 161 156 162 148 152 141 122 128 111 14 350 7 35 36 60 41 30 33 24 25 21 3 355 348 343 336 327 326 328 329 327 323 323 322 321 318 311 306
170 171 173 167 168 169 176 180 172 165 171 182 152 151 151 216 275 329 336 20 18 10 11 6 9 3 352 348 343 338 335 330 327 326 328 329 325 320 317 318 317 314 312
168 170 169 167 169 173 178 187 184 173 163 179 188 141 152 156 166 276 313 310 315 301 309 338 344 343 342 340 334 331 332 332 332 327 325 325 326 327 325 322 319 317 314
147 159 165 165 169 175 180 179 176 173 178 180 182 168 140 128 159 177 242 287 307 277 271 271 292 320 326 330 329 328 332 333 328 324 322 323 325 326 326 326 324 320 319
146 139 158 166 170 171 182 182 177 172 182 182 188 185 171 170 182 184 203 234 270 280 284 267 261 292 317 324 320 326 330 330 327 325 323 321 323 323 322 321 323 324 323
183 188 164 170 178 176 174 169 173 176 179 184 195 200 191 192 174 174 179 212 258 291 302 281 251 265 311 320 313 322 326 325 323 322 322 321 321 321 321 321 321 320 320
188 180 172 177 178 166 169 170 177 184 178 187 195 196 195 197 185 179 172 172 245 288 277 271 282 250 296 308 305 313 315 316 315 316 317 317 316 318 318 321 320 319 316
175 169 168 172 174 166 170 168 175 179 174 190 196 201 203 204 192 186 174 177 186 237 261 255 266 273 297 301 305 310 309 309 314 317 316 314 314 315 318 322 325 324 319
166 163 168 172 173 170 174 175 178 180 178 198 203 200 206 208 197 190 183 185 196 204 239 243 250 281 289 301 305 310 310 312 312 316 316 318 319 318 320 322 327 330 326
166 171 182 183 183 183 181 182 194 188 193 207 210 206 212 206 204 199 187 190 201 199 236 270 263 284 282 301 314 315 312 312 312 317 318 319 319 319 319 323 326 328 332
180 184 187 192 195 193 189 192 202 200 204 214 216 209 218 208 205 203 198 202 209 209 215 254 272 270 266 285 304 308 313 313 306 313 319 320 319 320 319 319 322 325 327
189 187 189 198 203 199 195 202 205 209 213 219 213 211 216 203 211 212 207 207 212 220 212 222 257 258 267 289 305 308 309 310 310 314 319 321 322 321 318 319 320 324 325
190 203 203 206 206 205 205 208 211 212 218 219 218 217 214 207 211 209 211 211 207 216 222 223 247 261 268 280 284 308 318 318 311 319 324 321 321 322 321 319 317 319 323
201 208 202 204 204 205 204 199 200 198 206 216 220 224 224 218 223 219 219 208 199 209 215 228 251 269 275 283 281 287 301 314 304 309 323 319 318 317 317 315 313 316 319
216 205 208 205 209 221 215 207 199 196 202 209 221 229 231 227 234 238 243 230 213 210 215 223 247 252 262 254 261 279 294 315 297 301 321 305 308 305 305 305 310 317 319
200 212 223 218 225 229 216 212 206 198 200 212 217 221 233 236 228 225 242 240 237 238 228 216 231 242 247 239 249 265 263 270 271 276 306 286 299 296 298 307 311 317 323
206 213 219 220 225 237 224 218 210 197 204 217 218 218 221 225 222 219 221 228 236 242 245 234 228 235 238 233 229 240 248 277 289 273 253 273 290 291 303 304 308 316 328
216 215 204 207 218 240 232 223 211 201 217 229 229 225 223 222 234 231 218 226 245 262 273 262 263 262 260 253 235 182 262 296 293 274 228 257 285 304 297 292 308 316 322
212 210 215 214 220 236 242 228 212 200 216 229 234 234 233 230 233 230 214 216 236 252 249 269 270 265 258 236 226 210 206 233 274 269 235 239 269 326 310 295 306 325 329
Height
1522 1523 1524 1525 1526 1527 1528 1529 1530 1531 1532 1533 1534 1535 1536 1537 1537 1537 1538 1538 1539 1539 1539 1540 1539 1539 1539 1539 1538 1538 1537 1537 1537 1536 1535 1535 1534 1533 1533 1532 1531 1530 1530
1520 1521 1522 1523 1525 1526 1527 1528 1528 1529 1530 1531 1532 1533 1534 1535 1535 1536 1536 1536 1537 1537 1538 1538 1538 1538 1538 1537 1537 1536 1536 1535 1535 1534 1534 1533 1532 1531 1531 1530 1529 1528 1527
1517 1519 1520 1521 1523 1524 1525 1526 1526 1527 1528 1529 1530 1531 1532 1533 1533 1534 1534 1534 1535 1535 1536 1536 1536 1536 1536 1535 1535 1535 1534 1533 1533 1532 1532 1531 1530 1529 1529 1528 1527 1526 1525
1515 1516 1518 1519 1520 1521 1522 1523 1524 1525 1525 1527 1528 1529 1530 1530 1531 1532 1532 1532 1533 1533 1533 1533 1534 1534 1533 1533 1533 1533 1532 1531 1531 1530 1530 1529 1528 1527 1526 1525 1524 1523 1522
1512 1513 1515 1516 1518 1519 1520 1521 1522 1523 1523 1524 1525 1526 1527 1528 1529 1529 1529 1530 1530 1531 1531 1531 1531 1531 1531 1531 1531 1530 1530 1529 1529 1528 1528 1526 1525 1524 1523 1522 1521 1520 1519
1509 1511 1512 1514 1515 1516 1517 1518 1519 1520 1521 1522 1523 1524 1525 1525 1526 1526 1527 1527 1528 1528 1529 1529 1529 1529 1529 1528 1528 1527 1527 1527 1526 1525 1525 1524 1523 1521 1520 1519 1518 1517 1516
1506 1507 1509 1510 1512 1513 1514 1515 1516 1517 1518 1519 1520 1521 1522 1522 1523 1524 1524 1525 1525 1526 1526 1527 1526 1526 1526 1526 1525 1525 1524 1524 1523 1522 1521 1520 1519 1518 1517 1516 1514 1513 1512
1502 1504 1506 1507 1508 1510 1511 1512 1514 1515 1515 1517 1518 1518 1519 1521 1520 1521 1522 1522 1523 1523 1524 1524 1524 1524 1523 1523 1522 1522 1521 1521 1520 1519 1518 1517 1516 1514 1513 1512 1511 1510 1509
1499 1501 1502 1503 1505 1507 1508 1509 1511 1512 1513 1514 1515 1516 1517 1517 1518 1519 1519 1520 1520 1521 1521 1522 1522 1521 1521 1520 1519 1519 1518 1518 1517 1516 1515 1513 1512 1511 1510 1508 1507 1506 1505
1495 1497 1499 1500 1502 1503 1505 1507 1508 1509 1510 1511 1513 1513 1515 1515 1516 1515 1516 1517 1518 1518 1518 1519 1519 1518 1518 1517 1516 1516 1515 1514 1514 1513 1511 1510 1509 1507 1506 1505 1503 1502 1501
1491 1493 1495 1496 1498 1499 1501 1503 1505 1506 1507 1508 1510 1510 1511 1512 1513 1513 1512 1513 1514 1515 1515 1515 1515 1515 1515 1514 1513 1512 1512 1511 1510 1509 1508 1506 1505 1503 1502 1501 1500 1498 1497
1487 1489 1491 1493 1495 1496 1498 1500 1502 1503 1504 1505 1507 1507 1508 1509 1509 1510 1509 1509 1510 1511 1511 1512 1512 1512 1511 1511 1510 1509 1509 1508 1507 1506 1504 1503 1501 1499 1498 1497 1496 1495 1493
1484 1486 1488 1489 1491 1493 1495 1497 1498 1500 1501 1502 1503 1504 1505 1505 1507 1507 1507 1507 1507 1507 1507 1508 1508 1508 1508 1508 1507 1506 1505 1504 1503 1502 1501 1499 1497 1496 1494 1493 1492 1491 1490
1481 1483 1485 1486 1488 1490 1491 1493 1495 1496 1498 1499 1500 1501 1501 1502 1503 1503 1504 1504 1504 1503 1504 1504 1505 1505 1505 1504 1503 1503 1502 1501 1499 1498 1497 1495 1494 1492 1491 1490 1488 1487 1485
1478 1480 1482 1483 1485 1486 1488 1490 1491 1493 1494 1495 1497 1498 1498 1499 1499 1500 1500 1501 1502 1500 1500 1500 1501 1501 1501 1500 1500 1499 1498 1497 1495 1494 1493 1492 1490 1489 1488 1486 1485 1483 1482
1475 1476 1478 1480 1482 1483 1485 1486 1487 1489 1491 1492 1493 1494 1495 1495 1496 1496 1497 1497 1498 1498 1497 1496 1497 1497 1497 1497 1496 1495 1494 1493 1491 1490 1489 1488 1487 1485 1484 1482 1481 1479 1477
1472 1473 1475 1477 1478 1479 1481 1482 1484 1485 1486 1488 1489 1490 1491 1492 1492 1493 1493 1493 1494 1494 1493 1492 1493 1493 1493 1493 1492 1491 1490 1489 1488 1487 1486 1484 1483 1482 1480 1479 1477 1476 1474
1469 1470 1472 1473 1474 1475 1477 1478 1480 1481 1482 1483 1485 1486 1486 1487 1488 1489 1489 1489 1490 1490 1490 1488 1489 1489 1489 1488 1488 1487 1486 1485 1484 1483 1482 1481 1479 1478 1477 1475 1474 1472 1470
1465 1467 1468 1469 1470 1471 1473 1474 1475 1477 1478 1479 1480 1481 1482 1483 1483 1484 1485 1485 1485 1486 1486 1485 1485 1485 1485 1485 1484 1483 1483 1481 1480 1479 1478 1477 1476 1474 1473 1471 1470 1468 1467
1462 1463 1464 1465 1466 1467 1468 1470 1471 1472 1473 1474 1476 1477 1477 1478 1479 1480 1480 1481 1481 1482 1482 1482 1481 1481 1481 1481 1480 1479 1478 1477 1476 1475 1474 1473 1472 1471 1469 1468 1466 1465 1463
1459 1460 1460 1461 1462 1463 1464 1465 1466 1467 1468 1470 1471 1472 1473 1474 1475 1476 1476 1477 1477 1478 1478 1478 1477 1477 1477 1476 1476 1475 1474 1473 1472 1471 1470 1469 1468 1467 1466 1464 1463 1461 1460
1456 1456 1457 1457 1458 1459 1460 1461 1462 1463 1464 1465 1466 1467 1468 1469 1470 1471 1472 1473 1474 1474 1474 1474 1473 1473 1473 1473 1473 1472 1471 1469 1467 1468 1466 1465 1465 1463 1462 1461 1459 1458 1456
1452 1453 1453 1454 1454 1455 1456 1457 1458 1459 1460 1461 1462 1463 1464 1465 1466 1467 1468 1469 1469 1470 1470 1470 1470 1469 1469 1469 1469 1468 1467 1466 1465 1464 1463 1461 1461 1459 1458 1457 1456 1454 1453
1448 1449 1449 1450 1451 1452 1453 1454 1454 1455 1456 1457 1458 1459 1460 1461 1462 1463 1464 1464 1465 1466 1466 1466 1466 1466 1466 1466 1465 1465 1464 1463 1462 1461 1460 1458 1456 1456 1455 1454 1452 1451 1450
1444 1445 1446 1447 1447 1448 1449 1450 1451 1452 1453 1453 1454 1456 1457 1457 1459 1460 1460 1461 1461 1461 1462 1462 1462 1462 1462 1462 1461 1461 1460 1459 1457 1457 1457 1455 1453 1452 1451 1450 1449 1448 1447
1440 1441 1442 1443 1444 1445 1446 1447 1448 1448 1449 1450 1451 1452 1453 1454 1455 1455 1456 1456 1457 1457 1458 1458 1458 1458 1458 1457 1457 1457 1456 1455 1454 1454 1453 1452 1451 1450 1448 1446 1446 1445 1443